Regional Weather Roundup
Issued by NWS

Home | Current Version | Previous Version | Text Only | Print | Product List | Glossary On
Versions: 1 2 3 4 5 6 7 8 9 10 11 12 13 14 15 16 17 18 19 20 21 22 23 24 25 26 27 28 29 30 31 32 33 34 35 36 37 38 39 40 41 42 43 44 45 46 47 48 49 50
000
ASUS44 KMEG 191610
RWRTN
TENNESSEE HOURLY STATE WEATHER ROUNDUP
NATIONAL WEATHER SERVICE MEMPHIS TN
1100 AM CDT FRI SEP 19 2014

TNZ002-004-019-021-049-052-054-088>092-191700-
WEST TENNESSEE

CITY           SKY/WX    TMP DP  RH WIND       PRES   REMARKS
MEMPHIS INTL   MOSUNNY   78  64  61 E5        30.05R
NWS MEMPHIS      N/A     77 N/A N/A MISG        N/A
JACKSON        SUNNY     77  64  64 E6        30.06S
DYERSBURG      SUNNY     73  57  56 CALM      30.07S
UNION CITY     SUNNY     73  63  68 NE5       30.06S
PARIS          SUNNY     72  61  68 E5        30.08S
HUNTINGDON     SUNNY     74  61  63 NE3       30.07S
LEXINGTON      SUNNY     75  63  64 CALM      30.05S
SAVANNAH       SUNNY     77  70  78 CALM      30.06S
$$

TNZ008-025-027-028-033-062-065-066-191700-
NORTH MIDDLE TENNESSEE

CITY           SKY/WX    TMP DP  RH WIND       PRES   REMARKS
NASHVILLE      SUNNY     77  60  55 VRB3      30.08F
DICKSON        SUNNY     73  63  68 E3        30.08S
PORTLAND       SUNNY     73  61  64 E5        30.08S
CLARKSVILLE    SUNNY     74  59  59 CALM      30.09R
LEBANON        SUNNY     75  59  57 E3        30.07S
SMYRNA         SUNNY     77  61  57 CALM      30.09S
COOKEVILLE     SUNNY     79  63  57 VRB3      30.10R
GALLATIN       SUNNY     75  61  62 SE5       30.10R
CROSSVILLE     SUNNY     74  57  55 SE7       30.14S
$$

TNZ061-075-076-078-094-096-097-191700-
SOUTH MIDDLE TENNESSEE

CITY           SKY/WX    TMP DP  RH WIND       PRES   REMARKS
LEWISBURG      SUNNY     78  64  61 CALM      30.06F
FAYETTEVILLE   SUNNY     77  61  57 VRB3      30.08S
TULLAHOMA      SUNNY     77  61  57 SE3       30.10R
WINCHESTER     SUNNY     79  61  53 SE9       30.08F
MCMINNVILLE    SUNNY     79  64  61 E3        30.09S
COLUMBIA       SUNNY     81  66  61 CALM      30.05S
SHELBYVILLE    PTSUNNY   81  64  57 S5        30.08S
$$

TNZ017-018-042-046-047-191700-
NORTHEAST TENNESSEE

CITY           SKY/WX    TMP DP  RH WIND       PRES   REMARKS
TRI CITIES     MOSUNNY   77  59  53 S7        30.15S
ELIZABETHTON   MOSUNNY   73  59  60 E6        30.15F
$$

TNZ012-013-036-069-073-074-191700-
CENTRAL EAST TENNESSEE

CITY           SKY/WX    TMP DP  RH WIND       PRES   REMARKS
KNOXVILLE      MOSUNNY   76  59  55 CALM      30.10S
OAK RIDGE      SUNNY     74  60  61 VRB3      30.13S
GATLINBURG     SUNNY     75  61  60 CALM      30.10F
MORRISTOWN     SUNNY     75  61  60 E5        30.13F
$$

TNZ083-085-099-191700-
SOUTHEAST TENNESSEE

CITY           SKY/WX    TMP DP  RH WIND       PRES   REMARKS
CHATTANOOGA    MOSUNNY   75  60  59 CALM      30.10F
$$

SKY/WX REPORTED AS FAIR MEANS FEW OR NO CLOUDS BELOW
12 THOUSAND FEET.




USA.gov is the U.S. government's official web portal to all federal, state and local government web resources and services.